Meath Environmental Platform

Observations for Trim Patrick St

Time AQI Temp °C Hum % Pres Pa CO μg/m³ H₂S μg/m³ NO μg/m³ NO₂ μg/m³ O₃ μg/m³ SO₂ μg/m³ PM1 μg/m³ PM2.5 μg/m³ PM10 μg/m³
Monday 3 August 2026
09:17 2 22.8 64 82,152 0.1 0 3.31 12.29 39.46 4.74 5.43 11.43 12.58
09:16 2 22.8 63 82,575 0.09 0 2.99 12.04 42.56 4.75 7.14 11.45 12.59
09:15 2 22.8 64 82,933 0.1 0 3.13 11.39 41.87 4.51 4.57 10.66 11.73
09:14 2 22.7 63 83,603 0.09 0 3.04 11.98 43.98 4.19 4.57 9.24 10.17
09:13 2 22.7 64 84,345 0.08 0 2.71 10.75 41.85 4.03 4.57 9.94 10.93
09:12 2 22.7 64 85,526 0.09 0 2.75 10.33 44.33 3.61 4.57 9.94 10.93
09:11 2 22.6 64 87,010 0.09 0 2.9 12.94 39.59 3.76 4.57 9.95 10.94
09:09 2 22.5 65 90,698 0.14 0 2.96 14.81 39.1 4.62 6.29 10.56 11.61
09:08 2 22.4 64 92,464 0.1 0 3.33 13.85 38.47 4.15 5.43 10.64 11.71
09:05 2 22.2 66 97,752 0.09 0 2.99 9.81 44.87 2.48 5.43 9.06 9.97
09:04 2 22.2 66 102,401 0.12 0 3 9.09 40.65 3.12 4.57 9.74 10.72
09:03 2 22.1 66 105,654 0.11 0 2.67 12.37 42.56 3.56 6.29 10.5 11.55
09:02 2 22 66 109,214 0.12 0 2.82 11.45 37.7 2.85 8 12.72 13.99
09:01 2 21.9 67 113,373 0.12 0 2.77 13.69 42.51 3.15 6.29 11.9 13.09
09:00 2 21.9 66 2,001 0.11 0 3.15 13.13 40.89 3.55 5.43 9.81 10.79
08:59 2 21.8 66 4,533 0.11 0 3.16 12.14 36.21 1.77 5.43 10.52 11.57
08:58 2 21.7 67 10,331 0.12 0 3.25 12.42 39.31 2.62 7.14 10.46 11.5
08:57 2 21.7 67 16,854 0.14 0 3.36 12.09 37.8 2.61 6.29 10.42 11.46
08:56 2 21.6 67 23,689 0.14 0 3.54 12.88 37.97 2.23 5.43 9.69 10.66
08:55 2 21.6 68 28,395 0.14 0 3.23 19.95 40.24 2.41 6.29 11.12 12.23